Osoyoos, British Columbia

10:23 AM PST on January 16, 2018 (GMT -0800)
Osoyoos

Weather History for CWYY - July, 2013

Change the Weather History Date:

Wednesday, July 24, 2013

  Actual Average (KOMK) Record (KOMK)
Temperature  
Mean Temperature 82 °F 74 °F  
Max Temperature 99 °F 90 °F 106 °F (1994)
Min Temperature 65 °F 59 °F 42 °F (1948)
Degree Days  
Heating Degree Days 0 0  
Month to date heating degree days 11  
Since 1 June heating degree days 80  
Since 1 July heating degree days 11  
Cooling Degree Days 17 10  
Month to date cooling degree days 183  
Year to date cooling degree days 290  
Since 1 June cooling degree days 267  
Growing Degree Days 32 (Base 50)    
Moisture  
Dew Point 48 °F    
Average Humidity 35    
Maximum Humidity 58    
Minimum Humidity 6    
Precipitation  
Precipitation 0.00 in 0.03 in 0.19 in (1955)
Month to date precipitation 0.66  
Year to date precipitation 8.64  
Sea Level Pressure  
Sea Level Pressure 29.87 in    
Wind  
Wind Speed 3 mph ()    
Max Wind Speed 6 mph    
Max Gust Speed -    
T = Trace of Precipitation, MM = Missing Value Source: Averaged Metar Reports

Daily Weather History Graph

Daily Weather History Graph

Search for Another Location

Airport or City:

Trip Planner

Search our weather history database for the weather conditions in past years. The results will help you decide how hot, cold, wet, or windy it might be!

Date:

Astronomy

Jul. 24, 2013 Rise Set
Actual Time 5:20 AM PDT 8:47 PM PDT
Civil Twilight 4:41 AM PDT 9:25 PM PDT
Nautical Twilight 3:49 AM PDT 10:17 PM PDT
Astronomical Twilight 2:39 AM PDT 11:26 PM PDT
Moon 9:34 PM PDT (7/24) 8:04 AM PDT (7/24)
Length of Visible Light 16h 44m
Length of Day
15h 26m
Waning Gibbous, 94% of the Moon is Illuminated
Jul 24
Waning Gibbous
Jul 29
Last Quarter
Aug 6
New
Aug 14
First Quarter
Aug 20
Full

Hourly Weather History & Observations

Time (PDT) Temp. Heat Index Dew Point Humidity Pressure Visibility Wind Dir Wind Speed Gust Speed Precip Events Conditions
12:00 AM 70.7 °F - 54.0 °F 55% 29.86 in - SSE 4.6 mph - N/A   Unknown
1:00 AM 72.1 °F - 56.7 °F 58% 29.87 in - NE 3.5 mph - N/A   Unknown
2:00 AM 74.1 °F - 51.8 °F 46% 29.87 in - ESE 3.5 mph - N/A   Unknown
3:00 AM 68.5 °F - 53.1 °F 58% 29.88 in - NNE 1.2 mph - N/A   Unknown
4:00 AM 70.3 °F - 50.5 °F 49% 29.90 in - North 3.5 mph - N/A   Unknown
5:00 AM 66 °F - 49 °F 43% 29.91 in - ENE 2.3 mph - -  
5:00 AM 66.4 °F - 48.7 °F 53% 29.91 in - ENE 2.3 mph - N/A   Unknown
6:00 AM 67.5 °F - 46.4 °F 47% 29.92 in - NE 4.6 mph - N/A   Unknown
7:00 AM 66.2 °F - 50.4 °F 57% 29.94 in - NE 2.3 mph - N/A   Unknown
8:00 AM 72.1 °F - 47.8 °F 42% 29.95 in - ENE 1.2 mph - N/A   Unknown
9:00 AM 77.5 °F - 41.7 °F 28% 29.94 in - South 3.5 mph - N/A   Unknown
10:00 AM 82.0 °F - 46.2 °F 28% 29.92 in - South 2.3 mph - N/A   Unknown
11:00 AM 86 °F - 48 °F 17% 29.91 in - SE 3.5 mph - -  
11:00 AM 86.0 °F - 48.2 °F 27% 29.91 in - SE 3.5 mph - N/A   Unknown
12:00 PM 91.4 °F - 40.1 °F 17% 29.88 in - WNW 5.8 mph - N/A   Unknown
1:00 PM 93.6 °F - 37.9 °F 14% 29.88 in - NW 3.5 mph - N/A   Unknown
2:00 PM 94.6 °F - 36.1 °F 13% 29.86 in - NW 2.3 mph - N/A   Unknown
3:00 PM 95.5 °F - 36.9 °F 13% 29.85 in - NW 3.5 mph - N/A   Unknown
4:00 PM 98.2 °F - 37.9 °F 12% 29.83 in - NW 2.3 mph - N/A   Unknown
5:00 PM 99 °F - 39 °F 6% 29.82 in - WNW 1.2 mph - -  
5:00 PM 98.6 °F - 39.2 °F 13% 29.82 in - WNW 1.2 mph - N/A   Unknown
6:00 PM 98.4 °F - 36.0 °F 11% 29.81 in - NW 3.5 mph - N/A   Unknown
7:00 PM 94.3 °F - 52.9 °F 25% 29.80 in - NE 1.2 mph - N/A   Unknown
8:00 PM 86.9 °F 88.1 °F 63.7 °F 46% 29.81 in - NE 2.3 mph - N/A   Unknown
9:00 PM 78.6 °F - 54.7 °F 43% 29.82 in - NE 2.3 mph - N/A   Unknown
10:00 PM 72.3 °F - 55.2 °F 55% 29.84 in - ESE 1.2 mph - N/A   Unknown
11:00 PM 70 °F - 54 °F 48% 29.86 in - NE 2.3 mph - -  
11:00 PM 70.0 °F - 54.5 °F 58% 29.86 in - NE 2.3 mph - N/A   Unknown